Location: Little Baddow
(51.7333°N, 0.5667°E)
Time: 02:59:30
(UTC+00:00)

Cosmos 1939 Rocket - Pass Details

Date: 08 November 2025
Orbit: 491 x 528 km, 97.5° (Epoch: 15 December)

Event Time Altitude Azimuth Distance (km) Brightness Sun altitude
Rises 05:18:50 0° 8° (N) 2,687 6.4 -16.5°
Maximum altitude 05:24:40 39° 291° (WNW) 805 3.2 -15.6°
Enters shadow 05:27:38 14° 226° (SW) 1,534 4.7 -15.1°
